Year,Month,Day,Hour,Minute,Value (Times are PST for temperature in C)
2021,11,29,08,05,8.80
2021,11,29,08,06,8.80
2021,11,29,08,07,8.80
2021,11,29,08,08,8.80
2021,11,29,08,09,8.80
2021,11,29,08,10,8.80
2021,11,29,08,11,8.80
2021,11,29,08,12,8.80
2021,11,29,08,13,8.80
2021,11,29,08,14,8.80
2021,11,29,08,15,8.90
2021,11,29,08,16,8.80
2021,11,29,08,17,8.80
2021,11,29,08,18,8.80
2021,11,29,08,19,8.80
2021,11,29,08,20,8.80
2021,11,29,08,21,8.80
2021,11,29,08,22,8.80
2021,11,29,08,23,8.80
2021,11,29,08,24,8.80
2021,11,29,08,25,8.80
2021,11,29,08,26,8.80
2021,11,29,08,27,8.70
2021,11,29,08,28,8.80
2021,11,29,08,29,8.80
2021,11,29,08,30,8.80
2021,11,29,08,31,8.80
2021,11,29,08,32,8.80
2021,11,29,08,33,8.80
2021,11,29,08,34,8.80
2021,11,29,08,35,8.80
2021,11,29,08,36,8.80
2021,11,29,08,37,8.80
2021,11,29,08,38,8.80
2021,11,29,08,39,8.80
2021,11,29,08,40,8.80
2021,11,29,08,41,8.80
2021,11,29,08,42,8.80
2021,11,29,08,43,8.80
2021,11,29,08,44,8.80
2021,11,29,08,45,8.80
2021,11,29,08,46,8.80
2021,11,29,08,47,8.80
2021,11,29,08,48,8.80
2021,11,29,08,49,8.80
2021,11,29,08,50,8.80
2021,11,29,08,51,8.80
2021,11,29,08,52,8.80
2021,11,29,08,53,8.80
2021,11,29,08,54,8.80
2021,11,29,08,55,8.80
2021,11,29,08,56,8.80
2021,11,29,08,57,8.80
2021,11,29,08,58,8.80
2021,11,29,08,59,8.80
2021,11,29,09,00,8.80
2021,11,29,09,01,8.80
2021,11,29,09,02,8.80
2021,11,29,09,03,8.90
2021,11,29,09,04,8.90
2021,11,29,09,05,8.90
2021,11,29,09,06,9.00
2021,11,29,09,07,9.00
2021,11,29,09,08,9.00
2021,11,29,09,09,9.00
2021,11,29,09,10,9.00
2021,11,29,09,11,9.00
2021,11,29,09,12,9.00
2021,11,29,09,13,9.00
2021,11,29,09,14,9.00
2021,11,29,09,15,9.00
2021,11,29,09,16,9.10
2021,11,29,09,17,9.10
2021,11,29,09,18,9.10
2021,11,29,09,19,9.10
2021,11,29,09,20,9.10
2021,11,29,09,21,9.10
2021,11,29,09,22,9.10
2021,11,29,09,23,9.10
2021,11,29,09,24,9.10
2021,11,29,09,25,9.10
2021,11,29,09,26,9.10
2021,11,29,09,27,9.10
2021,11,29,09,28,9.10
2021,11,29,09,29,9.10
2021,11,29,09,30,9.10
2021,11,29,09,31,9.10
2021,11,29,09,32,9.10
2021,11,29,09,33,9.10
2021,11,29,09,34,9.10
2021,11,29,09,35,9.10
2021,11,29,09,36,9.20
2021,11,29,09,37,9.20
2021,11,29,09,38,9.20
2021,11,29,09,39,9.10
2021,11,29,09,40,9.10
2021,11,29,09,41,9.20
2021,11,29,09,42,9.20
2021,11,29,09,43,9.20
2021,11,29,09,44,9.20
2021,11,29,09,45,9.20
2021,11,29,09,46,9.20
2021,11,29,09,47,9.20
2021,11,29,09,48,9.20
2021,11,29,09,49,9.20
2021,11,29,09,50,9.20
2021,11,29,09,51,9.20
2021,11,29,09,52,9.30
2021,11,29,09,53,9.30
2021,11,29,09,54,9.30
2021,11,29,09,55,9.20
2021,11,29,09,56,9.20
2021,11,29,09,57,9.20
2021,11,29,09,58,9.20
2021,11,29,09,59,9.20
2021,11,29,10,00,9.20
2021,11,29,10,01,9.30
2021,11,29,10,02,9.30
2021,11,29,10,03,9.30
2021,11,29,10,04,9.30
2021,11,29,10,05,9.30
2021,11,29,10,06,9.30
2021,11,29,10,07,9.40
2021,11,29,10,08,9.30
2021,11,29,10,09,9.40
2021,11,29,10,10,9.30
2021,11,29,10,11,9.30
2021,11,29,10,12,9.40
2021,11,29,10,13,9.40
2021,11,29,10,14,9.40
2021,11,29,10,15,9.50
2021,11,29,10,16,9.50
2021,11,29,10,17,9.50
2021,11,29,10,18,9.50
2021,11,29,10,19,9.50
2021,11,29,10,20,9.50
2021,11,29,10,21,9.50
2021,11,29,10,22,9.50
2021,11,29,10,23,9.50
2021,11,29,10,24,9.50
2021,11,29,10,25,9.50
2021,11,29,10,26,9.50
2021,11,29,10,27,9.50
2021,11,29,10,28,9.50
2021,11,29,10,29,9.50
2021,11,29,10,30,9.50
2021,11,29,10,31,9.50
2021,11,29,10,32,9.50
2021,11,29,10,33,9.50
2021,11,29,10,34,9.50
2021,11,29,10,35,9.50
2021,11,29,10,36,9.50
2021,11,29,10,37,9.40
2021,11,29,10,38,9.40
2021,11,29,10,39,9.40
2021,11,29,10,40,9.40
2021,11,29,10,41,9.40
2021,11,29,10,42,9.40
2021,11,29,10,43,9.40
2021,11,29,10,44,9.40
2021,11,29,10,45,9.40
2021,11,29,10,46,9.40
2021,11,29,10,47,9.40
2021,11,29,10,48,9.50
2021,11,29,10,49,9.50
2021,11,29,10,50,9.50
2021,11,29,10,51,9.60
2021,11,29,10,52,9.60
2021,11,29,10,53,9.60
2021,11,29,10,54,9.60
2021,11,29,10,55,9.50
2021,11,29,10,56,9.50
2021,11,29,10,57,9.50
2021,11,29,10,58,9.50
2021,11,29,10,59,9.50
2021,11,29,11,00,9.50
2021,11,29,11,01,9.50
2021,11,29,11,02,9.50
2021,11,29,11,03,9.50
2021,11,29,11,04,9.40
2021,11,29,11,05,9.40
2021,11,29,11,06,9.40
2021,11,29,11,07,9.40
2021,11,29,11,08,9.40
2021,11,29,11,09,9.40
2021,11,29,11,10,9.40
2021,11,29,11,11,9.40
2021,11,29,11,12,9.40
2021,11,29,11,13,9.40
2021,11,29,11,14,9.40
2021,11,29,11,15,9.40
2021,11,29,11,16,9.40
2021,11,29,11,17,9.40
2021,11,29,11,18,9.40
2021,11,29,11,19,9.40
2021,11,29,11,20,9.40
2021,11,29,11,21,9.40
2021,11,29,11,22,9.40
2021,11,29,11,23,9.40
2021,11,29,11,24,9.40
2021,11,29,11,25,9.40
2021,11,29,11,26,9.40
2021,11,29,11,27,9.40
2021,11,29,11,28,9.40
2021,11,29,11,29,9.50
2021,11,29,11,30,9.50
2021,11,29,11,31,9.50
2021,11,29,11,32,9.50
2021,11,29,11,33,9.50
2021,11,29,11,34,9.50
2021,11,29,11,35,9.40
2021,11,29,11,36,9.40
2021,11,29,11,37,9.40
2021,11,29,11,38,9.40
2021,11,29,11,39,9.40
2021,11,29,11,40,9.40
2021,11,29,11,41,9.40
2021,11,29,11,42,9.40
2021,11,29,11,43,9.40
2021,11,29,11,44,9.40
2021,11,29,11,45,9.40
2021,11,29,11,46,9.40
2021,11,29,11,47,9.40
2021,11,29,11,48,9.40
2021,11,29,11,49,9.40
2021,11,29,11,50,9.40
2021,11,29,11,51,9.40
2021,11,29,11,52,9.40
2021,11,29,11,53,9.40
2021,11,29,11,54,9.40
2021,11,29,11,55,9.40
2021,11,29,11,56,9.40
2021,11,29,11,57,9.40
2021,11,29,11,58,9.40
2021,11,29,11,59,9.40
2021,11,29,12,00,9.40
2021,11,29,12,01,9.40
2021,11,29,12,02,9.30
2021,11,29,12,03,9.30
2021,11,29,12,04,9.30
2021,11,29,12,05,9.30
2021,11,29,12,06,9.30
2021,11,29,12,07,9.30
2021,11,29,12,08,9.30
2021,11,29,12,09,9.30
2021,11,29,12,10,9.30
2021,11,29,12,11,9.30
2021,11,29,12,12,9.30
2021,11,29,12,13,9.30
2021,11,29,12,14,9.40
2021,11,29,12,15,9.40
2021,11,29,12,16,9.40
2021,11,29,12,17,9.40
2021,11,29,12,18,9.40
2021,11,29,12,19,9.40
2021,11,29,12,20,9.40
2021,11,29,12,21,9.40
2021,11,29,12,22,9.40
2021,11,29,12,23,9.40
2021,11,29,12,24,9.40
2021,11,29,12,25,9.40
2021,11,29,12,26,9.40
2021,11,29,12,27,9.40
2021,11,29,12,28,9.50
2021,11,29,12,29,9.50
2021,11,29,12,30,9.50
2021,11,29,12,31,9.50
2021,11,29,12,32,9.60
2021,11,29,12,33,9.60
2021,11,29,12,34,9.60
2021,11,29,12,35,9.60
2021,11,29,12,36,9.60
2021,11,29,12,37,9.60
2021,11,29,12,38,9.70
2021,11,29,12,39,9.70
2021,11,29,12,40,9.70
2021,11,29,12,41,9.70
2021,11,29,12,42,9.70
2021,11,29,12,43,9.70
2021,11,29,12,44,9.70
2021,11,29,12,45,9.70
2021,11,29,12,46,9.70
2021,11,29,12,47,9.70
2021,11,29,12,48,9.70
2021,11,29,12,49,9.70
2021,11,29,12,50,9.70
2021,11,29,12,51,9.70
2021,11,29,12,52,9.70
2021,11,29,12,53,9.70
2021,11,29,12,54,9.70
2021,11,29,12,55,9.70
2021,11,29,12,56,9.80
2021,11,29,12,57,9.80
2021,11,29,12,58,9.80
2021,11,29,12,59,9.80
2021,11,29,13,00,9.80
2021,11,29,13,01,9.80
2021,11,29,13,02,9.80
2021,11,29,13,03,9.90
2021,11,29,13,04,9.80
2021,11,29,13,05,9.80
2021,11,29,13,06,9.80
2021,11,29,13,07,9.80
2021,11,29,13,08,9.90
2021,11,29,13,09,9.90
2021,11,29,13,10,9.90
2021,11,29,13,11,9.90
2021,11,29,13,12,9.90
2021,11,29,13,13,9.90
2021,11,29,13,14,9.90
2021,11,29,13,15,9.90
2021,11,29,13,16,9.90
2021,11,29,13,17,9.90
2021,11,29,13,18,9.90
2021,11,29,13,19,10.00
2021,11,29,13,20,10.00
2021,11,29,13,21,10.00
2021,11,29,13,22,10.00
2021,11,29,13,23,9.90
2021,11,29,13,24,9.90
2021,11,29,13,25,9.90
2021,11,29,13,26,9.90
2021,11,29,13,27,9.90
2021,11,29,13,28,9.90
2021,11,29,13,29,10.00
2021,11,29,13,30,9.90
2021,11,29,13,31,9.90
2021,11,29,13,32,9.90
2021,11,29,13,33,9.90
2021,11,29,13,34,9.90
2021,11,29,13,35,9.90
2021,11,29,13,36,9.90
2021,11,29,13,37,9.90
2021,11,29,13,38,9.90
2021,11,29,13,39,9.90
2021,11,29,13,40,9.90
2021,11,29,13,41,9.90
2021,11,29,13,42,9.90
2021,11,29,13,43,9.90
2021,11,29,13,44,9.90
2021,11,29,13,45,9.90
2021,11,29,13,46,9.90
2021,11,29,13,47,9.90
2021,11,29,13,48,9.90
2021,11,29,13,49,9.90
2021,11,29,13,50,9.90
2021,11,29,13,51,9.90
2021,11,29,13,52,9.90
2021,11,29,13,53,9.90
2021,11,29,13,54,9.90
2021,11,29,13,55,9.90
2021,11,29,13,56,9.90
2021,11,29,13,57,9.90
2021,11,29,13,58,9.90
2021,11,29,13,59,9.90
2021,11,29,14,00,9.90
2021,11,29,14,01,9.90
2021,11,29,14,02,9.90
2021,11,29,14,03,9.90
2021,11,29,14,04,10.00
2021,11,29,14,05,10.00
2021,11,29,14,06,10.00
2021,11,29,14,07,10.00
2021,11,29,14,08,10.00
2021,11,29,14,09,10.00
2021,11,29,14,10,10.00
2021,11,29,14,11,10.00
2021,11,29,14,12,10.00
2021,11,29,14,13,10.00
2021,11,29,14,14,10.00
2021,11,29,14,15,10.00
2021,11,29,14,16,10.10
2021,11,29,14,17,10.10
2021,11,29,14,18,10.10
2021,11,29,14,19,10.10
2021,11,29,14,20,10.10
2021,11,29,14,21,10.10
2021,11,29,14,22,10.10
2021,11,29,14,23,10.10
2021,11,29,14,24,10.10
2021,11,29,14,25,10.10
2021,11,29,14,26,10.10
2021,11,29,14,27,10.10
2021,11,29,14,28,10.10
2021,11,29,14,29,10.10
2021,11,29,14,30,10.10
2021,11,29,14,31,10.10
2021,11,29,14,32,10.10
2021,11,29,14,33,10.10
2021,11,29,14,34,10.10
2021,11,29,14,35,10.10
2021,11,29,14,36,10.10
2021,11,29,14,37,10.10
2021,11,29,14,38,10.10
2021,11,29,14,39,10.10
2021,11,29,14,40,10.10
2021,11,29,14,41,10.10
2021,11,29,14,42,10.10
2021,11,29,14,43,10.10
2021,11,29,14,44,10.10
2021,11,29,14,45,10.10
2021,11,29,14,46,10.10
2021,11,29,14,47,10.10
2021,11,29,14,48,10.10
2021,11,29,14,49,10.10
2021,11,29,14,50,10.20
2021,11,29,14,51,10.20
2021,11,29,14,52,10.20
2021,11,29,14,53,10.10
2021,11,29,14,54,10.10
2021,11,29,14,55,10.10
2021,11,29,14,56,10.10
2021,11,29,14,57,10.10
2021,11,29,14,58,10.10
2021,11,29,14,59,10.10
2021,11,29,15,00,10.10
2021,11,29,15,01,10.10
2021,11,29,15,02,10.10
2021,11,29,15,03,10.10
2021,11,29,15,04,10.10
2021,11,29,15,05,10.10
2021,11,29,15,06,10.10
2021,11,29,15,07,10.10
2021,11,29,15,08,10.10
2021,11,29,15,09,10.10
2021,11,29,15,10,10.10
2021,11,29,15,11,10.10
2021,11,29,15,12,10.10
2021,11,29,15,13,10.10
2021,11,29,15,14,10.10
2021,11,29,15,15,10.10
2021,11,29,15,16,10.10
2021,11,29,15,17,10.10
2021,11,29,15,18,10.10
2021,11,29,15,19,10.00
2021,11,29,15,20,10.00
2021,11,29,15,21,10.00
2021,11,29,15,22,10.00
2021,11,29,15,23,10.00
2021,11,29,15,24,10.00
2021,11,29,15,25,9.90
2021,11,29,15,26,9.90
2021,11,29,15,27,9.90
2021,11,29,15,28,9.90
2021,11,29,15,29,9.90
2021,11,29,15,30,9.90
2021,11,29,15,31,9.90
2021,11,29,15,32,9.90
2021,11,29,15,33,9.90
2021,11,29,15,34,9.90
2021,11,29,15,35,9.90
2021,11,29,15,36,9.90
2021,11,29,15,37,9.90
2021,11,29,15,38,9.90
2021,11,29,15,39,9.90
2021,11,29,15,40,9.90
2021,11,29,15,41,9.90
2021,11,29,15,42,9.90
2021,11,29,15,43,9.90
2021,11,29,15,44,9.90
2021,11,29,15,45,9.90
2021,11,29,15,46,9.90
2021,11,29,15,47,9.90
2021,11,29,15,48,9.90
2021,11,29,15,49,9.90
2021,11,29,15,50,9.90
2021,11,29,15,51,9.90
2021,11,29,15,52,9.90
2021,11,29,15,53,9.90
2021,11,29,15,54,10.00
2021,11,29,15,55,10.00
2021,11,29,15,56,10.00
2021,11,29,15,57,10.00
2021,11,29,15,58,10.10
2021,11,29,15,59,10.10
2021,11,29,16,00,10.10
2021,11,29,16,01,10.10
2021,11,29,16,02,10.10
2021,11,29,16,03,10.10
2021,11,29,16,04,10.10
2021,11,29,16,05,10.10
2021,11,29,16,06,10.10
2021,11,29,16,07,10.20
2021,11,29,16,08,10.20
2021,11,29,16,09,10.20
2021,11,29,16,10,10.20
2021,11,29,16,11,10.20
2021,11,29,16,12,10.20
2021,11,29,16,13,10.20
2021,11,29,16,14,10.20
2021,11,29,16,15,10.20
2021,11,29,16,16,10.20
2021,11,29,16,17,10.20
2021,11,29,16,18,10.20
2021,11,29,16,19,10.20
2021,11,29,16,20,10.20
2021,11,29,16,21,10.20
2021,11,29,16,22,10.20
2021,11,29,16,23,10.20
2021,11,29,16,24,10.20
2021,11,29,16,25,10.20
2021,11,29,16,26,10.20
2021,11,29,16,27,10.20
2021,11,29,16,28,10.20
2021,11,29,16,29,10.20
2021,11,29,16,30,10.20
2021,11,29,16,31,10.20
2021,11,29,16,32,10.20
2021,11,29,16,33,10.10
2021,11,29,16,34,10.10
2021,11,29,16,35,10.10
2021,11,29,16,36,10.10
2021,11,29,16,37,10.00
2021,11,29,16,38,10.00
2021,11,29,16,39,10.00
2021,11,29,16,40,10.00
2021,11,29,16,41,10.00
2021,11,29,16,42,10.00
2021,11,29,16,43,10.00
2021,11,29,16,44,10.00
2021,11,29,16,45,10.00
2021,11,29,16,46,10.00
2021,11,29,16,47,10.00
2021,11,29,16,48,9.90
2021,11,29,16,49,10.00
2021,11,29,16,50,10.00
2021,11,29,16,51,10.00
2021,11,29,16,52,10.00
2021,11,29,16,53,10.00
2021,11,29,16,54,10.00
2021,11,29,16,55,10.10
2021,11,29,16,56,10.10
2021,11,29,16,57,10.10
2021,11,29,16,58,10.10
2021,11,29,16,59,10.10
2021,11,29,17,00,10.10
2021,11,29,17,01,10.20
2021,11,29,17,02,10.20
2021,11,29,17,03,10.20
2021,11,29,17,04,10.20
2021,11,29,17,05,10.20
2021,11,29,17,06,10.20
2021,11,29,17,07,10.20
2021,11,29,17,08,10.10
2021,11,29,17,09,10.10
2021,11,29,17,10,10.10
2021,11,29,17,11,10.10
2021,11,29,17,12,10.00
2021,11,29,17,13,10.00
2021,11,29,17,14,10.00
2021,11,29,17,15,10.00
2021,11,29,17,16,9.90
2021,11,29,17,17,9.90
2021,11,29,17,18,9.90
2021,11,29,17,19,9.90
2021,11,29,17,20,9.90
2021,11,29,17,21,9.90
2021,11,29,17,22,9.90
2021,11,29,17,23,9.80
2021,11,29,17,24,9.80
2021,11,29,17,25,9.80
2021,11,29,17,26,9.80
2021,11,29,17,27,9.80
2021,11,29,17,28,9.80
2021,11,29,17,29,9.80
2021,11,29,17,30,9.80
2021,11,29,17,31,9.80
2021,11,29,17,32,9.80
2021,11,29,17,33,9.80
2021,11,29,17,34,9.80
2021,11,29,17,35,9.80
2021,11,29,17,36,9.80
2021,11,29,17,37,9.80
2021,11,29,17,38,9.80
2021,11,29,17,39,9.80
2021,11,29,17,40,9.80
2021,11,29,17,41,9.80
2021,11,29,17,42,9.80
2021,11,29,17,43,9.80
2021,11,29,17,44,9.80
2021,11,29,17,45,9.80
2021,11,29,17,46,9.80
2021,11,29,17,47,9.80
2021,11,29,17,48,9.80
2021,11,29,17,49,9.80
2021,11,29,17,50,9.70
2021,11,29,17,51,9.70
2021,11,29,17,52,9.70
2021,11,29,17,53,9.70
2021,11,29,17,54,9.70
2021,11,29,17,55,9.70
2021,11,29,17,56,9.70
2021,11,29,17,57,9.80
2021,11,29,17,58,9.70
2021,11,29,17,59,9.70
2021,11,29,18,00,9.70
2021,11,29,18,01,9.70
2021,11,29,18,02,9.70
2021,11,29,18,03,9.60
2021,11,29,18,04,9.60
2021,11,29,18,05,9.60
2021,11,29,18,06,9.60
2021,11,29,18,07,9.60
2021,11,29,18,08,9.60
2021,11,29,18,09,9.60
2021,11,29,18,10,9.60
2021,11,29,18,11,9.60
2021,11,29,18,12,9.60
2021,11,29,18,13,9.60
2021,11,29,18,14,9.60
2021,11,29,18,15,9.60
2021,11,29,18,16,9.60
2021,11,29,18,17,9.60
2021,11,29,18,18,9.60
2021,11,29,18,19,9.60
2021,11,29,18,20,9.60
2021,11,29,18,21,9.50
2021,11,29,18,22,9.50
2021,11,29,18,23,9.50
2021,11,29,18,24,9.50
2021,11,29,18,25,9.50
2021,11,29,18,26,9.40
2021,11,29,18,27,9.40
2021,11,29,18,28,9.40
2021,11,29,18,29,9.40
2021,11,29,18,30,9.40
2021,11,29,18,31,9.40
2021,11,29,18,32,9.40
2021,11,29,18,33,9.40
2021,11,29,18,34,9.40
2021,11,29,18,35,9.40
2021,11,29,18,36,9.40
2021,11,29,18,37,9.40
2021,11,29,18,38,9.40
2021,11,29,18,39,9.40
2021,11,29,18,40,9.40
2021,11,29,18,41,9.40
2021,11,29,18,42,9.40
2021,11,29,18,43,9.30
2021,11,29,18,44,9.30
2021,11,29,18,45,9.30
2021,11,29,18,46,9.30
2021,11,29,18,47,9.30
2021,11,29,18,48,9.30
2021,11,29,18,49,9.30
2021,11,29,18,50,9.30
2021,11,29,18,51,9.30
2021,11,29,18,52,9.30
2021,11,29,18,53,9.30
2021,11,29,18,54,9.30
2021,11,29,18,55,9.20
2021,11,29,18,56,9.20
2021,11,29,18,57,9.20
2021,11,29,18,58,9.20
2021,11,29,18,59,9.20
2021,11,29,19,00,9.20
2021,11,29,19,01,9.20
2021,11,29,19,02,9.20
2021,11,29,19,03,9.20
2021,11,29,19,04,9.20
2021,11,29,19,05,9.20
2021,11,29,19,06,9.30
2021,11,29,19,07,9.30
2021,11,29,19,08,9.30
2021,11,29,19,09,9.30
2021,11,29,19,10,9.30
2021,11,29,19,11,9.40
2021,11,29,19,12,9.40
2021,11,29,19,13,9.40
2021,11,29,19,14,9.40
2021,11,29,19,15,9.40
2021,11,29,19,16,9.40
2021,11,29,19,17,9.40
2021,11,29,19,18,9.50
2021,11,29,19,19,9.50
2021,11,29,19,20,9.50
2021,11,29,19,21,9.50
2021,11,29,19,22,9.50
2021,11,29,19,23,9.40
2021,11,29,19,24,9.40
2021,11,29,19,25,9.40
2021,11,29,19,26,9.40
2021,11,29,19,27,9.40
2021,11,29,19,28,9.40
2021,11,29,19,29,9.40
2021,11,29,19,30,9.40
2021,11,29,19,31,9.40
2021,11,29,19,32,9.40
2021,11,29,19,33,9.40
2021,11,29,19,34,9.40
2021,11,29,19,35,9.40
2021,11,29,19,36,9.40
2021,11,29,19,37,9.40
2021,11,29,19,38,9.40
2021,11,29,19,39,9.40
2021,11,29,19,40,9.40
2021,11,29,19,41,9.40
2021,11,29,19,42,9.40
2021,11,29,19,43,9.40
2021,11,29,19,44,9.40
2021,11,29,19,45,9.40
2021,11,29,19,46,9.40
2021,11,29,19,47,9.40
2021,11,29,19,48,9.40
2021,11,29,19,49,9.40
2021,11,29,19,50,9.40
2021,11,29,19,51,9.40
2021,11,29,19,52,9.40
2021,11,29,19,53,9.40
2021,11,29,19,54,9.40
2021,11,29,19,55,9.40
2021,11,29,19,56,9.40
2021,11,29,19,57,9.40
2021,11,29,19,58,9.40
2021,11,29,19,59,9.40
2021,11,29,20,00,9.40
2021,11,29,20,01,9.40
2021,11,29,20,02,9.40
2021,11,29,20,03,9.40
2021,11,29,20,04,9.40
2021,11,29,20,05,9.40
2021,11,29,20,06,9.30
2021,11,29,20,07,9.30
2021,11,29,20,08,9.30
2021,11,29,20,09,9.30
2021,11,29,20,10,9.30
2021,11,29,20,11,9.30
2021,11,29,20,12,9.30
2021,11,29,20,13,9.30
2021,11,29,20,14,9.30
2021,11,29,20,15,9.30
2021,11,29,20,16,9.30
2021,11,29,20,17,9.30
2021,11,29,20,18,9.30
2021,11,29,20,19,9.20
2021,11,29,20,20,9.20
2021,11,29,20,21,9.20
2021,11,29,20,22,9.20
2021,11,29,20,23,9.20
2021,11,29,20,24,9.20
2021,11,29,20,25,9.20
2021,11,29,20,26,9.20
2021,11,29,20,27,9.20
2021,11,29,20,28,9.20
2021,11,29,20,29,9.20
2021,11,29,20,30,9.20
2021,11,29,20,31,9.20
2021,11,29,20,32,9.20
2021,11,29,20,33,9.20
2021,11,29,20,34,9.10
2021,11,29,20,35,9.10
2021,11,29,20,36,9.10
2021,11,29,20,37,9.10
2021,11,29,20,38,9.20
2021,11,29,20,39,9.20
2021,11,29,20,40,9.20
2021,11,29,20,41,9.20
2021,11,29,20,42,9.20
2021,11,29,20,43,9.20
2021,11,29,20,44,9.20
2021,11,29,20,45,9.20
2021,11,29,20,46,9.20
2021,11,29,20,47,9.20
2021,11,29,20,48,9.20
2021,11,29,20,49,9.20
2021,11,29,20,50,9.20
2021,11,29,20,51,9.20
2021,11,29,20,52,9.20
2021,11,29,20,53,9.20
2021,11,29,20,54,9.20
2021,11,29,20,55,9.20
2021,11,29,20,56,9.20
2021,11,29,20,57,9.20
2021,11,29,20,58,9.20
2021,11,29,20,59,9.20
2021,11,29,21,00,9.20
2021,11,29,21,01,9.20
2021,11,29,21,02,9.20
2021,11,29,21,03,9.20
2021,11,29,21,04,9.20
2021,11,29,21,05,9.20
2021,11,29,21,06,9.20
2021,11,29,21,07,9.20
2021,11,29,21,08,9.20
2021,11,29,21,09,9.20
2021,11,29,21,10,9.20
2021,11,29,21,11,9.20
2021,11,29,21,12,9.20
2021,11,29,21,13,9.20
2021,11,29,21,14,9.20
2021,11,29,21,15,9.20
2021,11,29,21,16,9.20
2021,11,29,21,17,9.20
2021,11,29,21,18,9.20
2021,11,29,21,19,9.20
2021,11,29,21,20,9.20
2021,11,29,21,21,9.20
2021,11,29,21,22,9.20
2021,11,29,21,23,9.20
2021,11,29,21,24,9.20
2021,11,29,21,25,9.20
2021,11,29,21,26,9.20
2021,11,29,21,27,9.20
2021,11,29,21,28,9.20
2021,11,29,21,29,9.20
2021,11,29,21,30,9.20
2021,11,29,21,31,9.20
2021,11,29,21,32,9.20
2021,11,29,21,33,9.20
2021,11,29,21,34,9.20
2021,11,29,21,35,9.20
2021,11,29,21,36,9.20
2021,11,29,21,37,9.10
2021,11,29,21,38,9.10
2021,11,29,21,39,9.10
2021,11,29,21,40,9.10
2021,11,29,21,41,9.10
2021,11,29,21,42,9.10
2021,11,29,21,43,9.10
2021,11,29,21,44,9.10
2021,11,29,21,45,9.10
2021,11,29,21,46,9.10
2021,11,29,21,47,9.10
2021,11,29,21,48,9.10
2021,11,29,21,49,9.10
2021,11,29,21,50,9.10
2021,11,29,21,51,9.10
2021,11,29,21,52,9.10
2021,11,29,21,53,9.10
2021,11,29,21,54,9.00
2021,11,29,21,55,9.10
2021,11,29,21,56,9.10
2021,11,29,21,57,9.10
2021,11,29,21,58,9.10
2021,11,29,21,59,9.10
2021,11,29,22,00,9.10
2021,11,29,22,01,9.10
2021,11,29,22,02,9.10
2021,11,29,22,03,9.10
2021,11,29,22,04,9.10
2021,11,29,22,05,9.10
2021,11,29,22,06,9.20
2021,11,29,22,07,9.20
2021,11,29,22,08,9.20
2021,11,29,22,09,9.20
2021,11,29,22,10,9.20
2021,11,29,22,11,9.20
2021,11,29,22,12,9.20
2021,11,29,22,13,9.20
2021,11,29,22,14,9.20
2021,11,29,22,15,9.20
2021,11,29,22,16,9.20
2021,11,29,22,17,9.20
2021,11,29,22,18,9.20
2021,11,29,22,19,9.20
2021,11,29,22,20,9.20
2021,11,29,22,21,9.20
2021,11,29,22,22,9.20
2021,11,29,22,23,9.20
2021,11,29,22,24,9.10
2021,11,29,22,25,9.10
2021,11,29,22,26,9.10
2021,11,29,22,27,9.10
2021,11,29,22,28,9.10
2021,11,29,22,29,9.10
2021,11,29,22,30,9.10
2021,11,29,22,31,9.10
2021,11,29,22,32,9.10
2021,11,29,22,33,9.10
2021,11,29,22,34,9.20
2021,11,29,22,35,9.20
2021,11,29,22,36,9.20
2021,11,29,22,37,9.20
2021,11,29,22,38,9.20
2021,11,29,22,39,9.20
2021,11,29,22,40,9.20
2021,11,29,22,41,9.20
2021,11,29,22,42,9.20
2021,11,29,22,43,9.20
2021,11,29,22,44,9.20
2021,11,29,22,45,9.10
2021,11,29,22,46,9.10
2021,11,29,22,47,9.10
2021,11,29,22,48,9.00
2021,11,29,22,49,9.00
2021,11,29,22,50,9.00
2021,11,29,22,51,9.00
2021,11,29,22,52,9.00
2021,11,29,22,53,9.00
2021,11,29,22,54,9.00
2021,11,29,22,55,9.00
2021,11,29,22,56,9.00
2021,11,29,22,57,9.10
2021,11,29,22,58,9.10
2021,11,29,22,59,9.10
2021,11,29,23,00,9.10
2021,11,29,23,01,9.10
2021,11,29,23,02,9.10
2021,11,29,23,03,9.10
2021,11,29,23,04,9.10
2021,11,29,23,05,9.10
2021,11,29,23,06,9.10
2021,11,29,23,07,9.10
2021,11,29,23,08,9.00
2021,11,29,23,09,9.00
2021,11,29,23,10,9.00
2021,11,29,23,11,9.00
2021,11,29,23,12,9.00
2021,11,29,23,13,9.00
2021,11,29,23,14,9.00
2021,11,29,23,15,9.00
2021,11,29,23,16,9.10
2021,11,29,23,17,9.10
2021,11,29,23,18,9.10
2021,11,29,23,19,9.10
2021,11,29,23,20,9.10
2021,11,29,23,21,9.00
2021,11,29,23,22,9.00
2021,11,29,23,23,9.00
2021,11,29,23,24,9.00
2021,11,29,23,25,9.00
2021,11,29,23,26,8.90
2021,11,29,23,27,8.90
2021,11,29,23,28,8.80
2021,11,29,23,29,8.80
2021,11,29,23,30,8.80
2021,11,29,23,31,8.80
2021,11,29,23,32,8.80
2021,11,29,23,33,8.70
2021,11,29,23,34,8.70
2021,11,29,23,35,8.70
2021,11,29,23,36,8.70
2021,11,29,23,37,8.80
2021,11,29,23,38,8.80
2021,11,29,23,39,8.80
2021,11,29,23,40,8.80
2021,11,29,23,41,8.80
2021,11,29,23,42,8.80
2021,11,29,23,43,8.80
2021,11,29,23,44,8.80
2021,11,29,23,45,8.80
2021,11,29,23,46,8.80
2021,11,29,23,47,8.80
2021,11,29,23,48,8.80
2021,11,29,23,49,8.80
2021,11,29,23,50,8.80
2021,11,29,23,51,8.80
2021,11,29,23,52,8.80
2021,11,29,23,53,8.80
2021,11,29,23,54,8.80
2021,11,29,23,55,8.80
2021,11,29,23,56,8.80
2021,11,29,23,57,8.80
2021,11,29,23,58,8.80
2021,11,29,23,59,8.80
